This demonstration page uses our WeatherBlox Daily Observations layout. Learn more.

Left ArrowRight Arrow

Hourly Observations for July 10, 2016

Temp ( °F °C ) Dew Point ( °F °C ) Humidity (%) Winds ( mph kmh ) Pressure ( in mb ) Visibility ( mi km ) Precip ( " mm )
12:59 am 00:59 Clear 81 27.2 70 21.1 69 69 W 9 15 29.86 1011 10 16 0.00 0.00
1:59 am 01:59 Mostly Clear 80 26.7 70 21.1 71 71 W 8 13 29.87 1012 10 16 0.00 0.00
2:59 am 02:59 Mostly Cloudy 80 26.7 69 20.6 69 69 W 7 11 29.89 1012 10 16 0.00 0.00
3:59 am 03:59 Mostly Clear 78 25.6 69 20.6 74 74 WNW 10 17 29.90 1012 10 16 0.00 0.00
4:59 am 04:59 Partly Cloudy 77 25 67 19.4 71 71 NW 8 13 29.89 1012 10 16 0.00 0.00
5:59 am 05:59 Mostly Cloudy 77 25 67 19.4 71 71 NW 8 13 29.91 1013 10 16 0.00 0.00
6:59 am 06:59 Mostly Cloudy 78 25.6 68 20 71 71 NW 8 13 29.93 1013 10 16 0.00 0.00
7:59 am 07:59 Mostly Cloudy 79 26.1 68 20 69 69 NW 8 13 29.95 1014 10 16 0.00 0.00
8:59 am 08:59 Mostly Cloudy 82 27.8 66 18.9 58 58 NNW 12 19 29.97 1015 10 16 0.00 0.00
9:59 am 09:59 Mostly Cloudy 83 28.3 67 19.4 59 59 NNW 7 11 29.97 1015 10 16 0.00 0.00
10:59 am 10:59 Mostly Cloudy 84 28.9 65 18.3 53 53 NNW 5 7 29.98 1015 10 16 0.00 0.00
11:59 am 11:59 Mostly Cloudy 86 30 67 19.4 53 53 N 7 11 29.97 1015 10 16 0.00 0.00
12:59 pm 12:59 Mostly Cloudy 85 29.4 68 20 57 57 VRB 6 9 29.99 1016 10 16 0.00 0.00
1:59 pm 13:59 Mostly Cloudy 86 30 66 18.9 51 51 Calm 29.98 1015 10 16 0.00 0.00
2:59 pm 14:59 Mostly Cloudy 88 31.1 68 20 52 52 NW 6 9 29.97 1015 10 16 0.00 0.00
3:59 pm 15:59 Partly Cloudy 88 31.1 68 20 52 52 N 6 9 29.95 1014 10 16 0.00 0.00
4:59 pm 16:59 Mostly Cloudy 87 30.6 68 20 53 53 N 10 17 29.95 1014 10 16 0.00 0.00
5:59 pm 17:59 Partly Cloudy 87 30.6 68 20 53 53 NNE 8 13 29.96 1015 10 16 0.00 0.00
6:59 pm 18:59 Partly Cloudy 84 28.9 68 20 59 59 E 7 11 29.97 1015 10 16 0.00 0.00
7:59 pm 19:59 Mostly Cloudy 82 27.8 67 19.4 60 60 SE 5 7 29.98 1015 10 16 0.00 0.00
8:59 pm 20:59 Partly Cloudy 79 26.1 67 19.4 67 67 Calm 29.99 1016 10 16 0.00 0.00
9:59 pm 21:59 Partly Cloudy 78 25.6 68 20 71 71 SSE 3 6 30.02 1017 10 16 0.00 0.00
10:59 pm 22:59 Partly Cloudy 77 25 68 20 74 74 S 3 6 30.03 1017 10 16 0.00 0.00
11:59 pm 23:59 Partly Cloudy 77 25 68 20 74 74 S 5 7 30.03 1017 10 16 0.00 0.00

Powered by AerisWeather